Total_Precipitation_Accumulation
1.12 1.14 1.16 1.13 1.09 1.07 1.10 1.10 1.00 0.86 0.74 0.65 0.57 0.55 0.54 0.50 0.50 0.54 0.56 0.61 0.70 0.74 0.70 0.72 0.78 0.84 0.92 0.99 1.10 1.22 1.37 1.50 1.56 1.32 1.10 1.03 1.06 1.11 1.14 1.03 0.94 0.90 0.83
0.95 0.93 0.95 0.88 0.84 0.83 0.81 0.82 0.77 0.74 0.71 0.65 0.60 0.59 0.54 0.48 0.47 0.48 0.48 0.47 0.52 0.58 0.61 0.64 0.63 0.66 0.76 0.83 0.92 1.02 1.13 1.24 1.36 1.33 1.14 1.05 1.04 1.12 1.17 1.15 0.99 0.84 0.77
0.70 0.73 0.77 0.74 0.70 0.72 0.68 0.67 0.69 0.68 0.64 0.59 0.57 0.55 0.51 0.49 0.50 0.49 0.46 0.45 0.43 0.46 0.50 0.56 0.60 0.64 0.73 0.79 0.88 0.92 0.98 1.03 1.19 1.24 1.14 1.07 1.08 1.13 1.23 1.18 0.99 0.92 0.70
0.56 0.56 0.61 0.62 0.60 0.60 0.62 0.58 0.55 0.54 0.54 0.47 0.43 0.45 0.47 0.44 0.39 0.37 0.37 0.39 0.40 0.40 0.40 0.43 0.48 0.55 0.65 0.75 0.80 0.87 0.96 1.06 1.14 1.22 1.21 1.18 1.19 1.18 1.23 1.26 1.08 0.92 0.75
0.53 0.55 0.57 0.59 0.56 0.57 0.58 0.56 0.49 0.44 0.41 0.39 0.37 0.38 0.38 0.33 0.29 0.28 0.30 0.30 0.35 0.37 0.39 0.39 0.38 0.43 0.53 0.59 0.65 0.79 0.98 1.13 1.14 1.19 1.22 1.23 1.23 1.28 1.23 1.15 1.07 0.93 0.76
0.61 0.62 0.60 0.60 0.61 0.61 0.57 0.53 0.48 0.43 0.40 0.37 0.38 0.35 0.29 0.22 0.23 0.25 0.25 0.30 0.35 0.40 0.47 0.44 0.35 0.33 0.37 0.42 0.50 0.61 0.78 0.99 1.13 1.19 1.21 1.19 1.17 1.21 1.20 1.15 1.14 1.12 0.98
0.66 0.62 0.59 0.56 0.57 0.52 0.46 0.48 0.47 0.45 0.41 0.38 0.38 0.35 0.31 0.21 0.16 0.18 0.20 0.26 0.38 0.46 0.50 0.50 0.38 0.32 0.39 0.46 0.48 0.50 0.60 0.75 0.96 1.16 1.24 1.14 1.19 1.26 1.31 1.32 1.22 1.21 1.14
0.62 0.56 0.49 0.49 0.53 0.47 0.46 0.48 0.44 0.45 0.46 0.41 0.36 0.36 0.35 0.20 0.15 0.17 0.20 0.30 0.40 0.43 0.42 0.44 0.48 0.51 0.43 0.42 0.48 0.63 0.78 0.84 0.87 0.91 1.09 1.12 1.17 1.17 1.12 1.15 1.16 1.19 1.09
0.55 0.49 0.42 0.41 0.40 0.40 0.40 0.43 0.45 0.47 0.50 0.43 0.36 0.38 0.38 0.28 0.20 0.20 0.23 0.34 0.41 0.39 0.36 0.35 0.38 0.46 0.43 0.47 0.62 0.86 1.06 1.20 1.04 0.98 1.05 1.19 1.21 1.09 0.92 0.97 1.20 1.29 1.15
0.46 0.41 0.38 0.37 0.37 0.40 0.42 0.44 0.41 0.46 0.52 0.42 0.34 0.35 0.32 0.27 0.20 0.22 0.28 0.34 0.43 0.41 0.42 0.41 0.44 0.45 0.46 0.59 0.74 1.02 1.25 1.35 1.17 1.10 1.21 1.34 1.27 1.18 1.08 1.12 1.31 1.29 1.17
0.33 0.31 0.33 0.34 0.34 0.34 0.42 0.45 0.44 0.44 0.49 0.46 0.40 0.37 0.29 0.20 0.18 0.22 0.25 0.30 0.37 0.44 0.46 0.51 0.53 0.54 0.52 0.63 0.81 1.01 1.23 1.29 1.24 1.20 1.22 1.23 1.23 1.22 1.12 1.11 1.14 1.11 1.10
0.28 0.30 0.31 0.30 0.25 0.26 0.39 0.43 0.43 0.49 0.46 0.44 0.45 0.41 0.30 0.23 0.17 0.15 0.16 0.20 0.29 0.45 0.56 0.59 0.57 0.57 0.60 0.75 0.89 1.09 1.30 1.41 1.30 1.16 1.05 1.01 1.00 1.03 1.00 0.88 0.83 0.81 0.86
0.29 0.34 0.31 0.27 0.25 0.26 0.32 0.35 0.37 0.44 0.43 0.38 0.38 0.35 0.29 0.25 0.18 0.11 0.11 0.13 0.20 0.32 0.49 0.64 0.63 0.59 0.74 1.03 1.20 1.32 1.48 1.54 1.34 1.07 0.96 0.89 0.82 0.78 0.75 0.76 0.73 0.67 0.65
0.36 0.36 0.32 0.32 0.31 0.26 0.25 0.23 0.24 0.27 0.29 0.33 0.33 0.33 0.31 0.27 0.19 0.14 0.16 0.18 0.21 0.27 0.40 0.60 0.72 0.76 0.92 1.21 1.42 1.53 1.58 1.48 1.23 1.01 0.88 0.79 0.72 0.68 0.69 0.66 0.66 0.64 0.66
0.35 0.30 0.28 0.27 0.26 0.25 0.20 0.14 0.13 0.13 0.12 0.19 0.25 0.27 0.28 0.24 0.16 0.16 0.19 0.20 0.23 0.29 0.36 0.54 0.73 0.83 1.03 1.25 1.39 1.40 1.34 1.24 1.15 0.97 0.83 0.76 0.74 0.71 0.69 0.62 0.61 0.56 0.58
0.32 0.29 0.24 0.21 0.18 0.16 0.16 0.15 0.09 0.08 0.08 0.10 0.14 0.17 0.17 0.17 0.15 0.14 0.15 0.20 0.25 0.32 0.39 0.62 0.80 0.90 1.05 1.17 1.25 1.22 1.12 1.03 0.95 0.87 0.80 0.73 0.70 0.67 0.66 0.59 0.52 0.50 0.54
0.22 0.22 0.19 0.14 0.14 0.15 0.16 0.20 0.21 0.14 0.10 0.11 0.12 0.14 0.15 0.14 0.13 0.14 0.15 0.20 0.24 0.30 0.43 0.65 0.82 0.94 1.04 1.07 1.08 1.03 0.97 0.92 0.83 0.76 0.72 0.67 0.61 0.57 0.54 0.50 0.45 0.46 0.45
0.14 0.13 0.13 0.13 0.11 0.13 0.12 0.12 0.17 0.25 0.26 0.21 0.14 0.13 0.13 0.13 0.14 0.16 0.18 0.21 0.30 0.35 0.50 0.66 0.78 0.83 0.89 0.93 0.91 0.89 0.86 0.79 0.72 0.68 0.67 0.63 0.55 0.49 0.45 0.42 0.40 0.38 0.37
0.12 0.12 0.10 0.09 0.07 0.07 0.06 0.06 0.09 0.14 0.20 0.22 0.20 0.15 0.14 0.14 0.17 0.20 0.22 0.27 0.37 0.44 0.53 0.63 0.69 0.72 0.75 0.78 0.76 0.72 0.71 0.68 0.61 0.58 0.58 0.58 0.56 0.49 0.41 0.34 0.30 0.24 0.25
0.08 0.08 0.08 0.06 0.05 0.05 0.05 0.06 0.08 0.10 0.14 0.18 0.21 0.19 0.18 0.27 0.33 0.31 0.27 0.28 0.34 0.42 0.49 0.57 0.59 0.59 0.59 0.60 0.57 0.52 0.52 0.52 0.50 0.50 0.50 0.49 0.49 0.43 0.36 0.29 0.24 0.22 0.21
0.07 0.06 0.05 0.04 0.04 0.04 0.04 0.06 0.07 0.08 0.12 0.16 0.16 0.15 0.22 0.29 0.38 0.36 0.34 0.35 0.38 0.41 0.42 0.46 0.49 0.49 0.45 0.43 0.43 0.43 0.44 0.45 0.45 0.46 0.46 0.44 0.41 0.36 0.29 0.24 0.20 0.17 0.15
0.06 0.06 0.05 0.04 0.04 0.03 0.03 0.04 0.05 0.06 0.08 0.12 0.13 0.13 0.22 0.28 0.36 0.37 0.38 0.40 0.42 0.44 0.42 0.40 0.39 0.41 0.42 0.41 0.39 0.38 0.39 0.40 0.43 0.45 0.43 0.40 0.38 0.32 0.25 0.19 0.16 0.15 0.13
0.05 0.05 0.04 0.04 0.03 0.03 0.03 0.03 0.04 0.04 0.06 0.08 0.10 0.12 0.18 0.27 0.35 0.42 0.46 0.46 0.45 0.42 0.37 0.35 0.37 0.38 0.36 0.34 0.33 0.34 0.34 0.35 0.39 0.43 0.42 0.37 0.32 0.27 0.22 0.18 0.15 0.15 0.13
0.05 0.04 0.03 0.03 0.02 0.02 0.02 0.02 0.03 0.03 0.04 0.06 0.08 0.12 0.17 0.25 0.31 0.40 0.48 0.51 0.52 0.50 0.43 0.39 0.38 0.37 0.34 0.31 0.32 0.32 0.31 0.32 0.33 0.35 0.35 0.31 0.25 0.22 0.19 0.17 0.15 0.14 0.13
0.05 0.04 0.03 0.03 0.02 0.01 0.02 0.02 0.03 0.04 0.04 0.05 0.08 0.12 0.15 0.18 0.24 0.32 0.39 0.44 0.48 0.52 0.50 0.48 0.45 0.39 0.33 0.28 0.26 0.26 0.31 0.32 0.28 0.26 0.30 0.27 0.19 0.17 0.16 0.14 0.13 0.13 0.13
0.04 0.04 0.03 0.03 0.02 0.01 0.02 0.02 0.03 0.04 0.03 0.05 0.08 0.09 0.10 0.13 0.18 0.23 0.26 0.29 0.33 0.40 0.45 0.50 0.51 0.41 0.32 0.27 0.27 0.27 0.25 0.19 0.14 0.15 0.24 0.26 0.20 0.16 0.15 0.13 0.12 0.12 0.13